Satellite-Ground Cal/Val Site Overpasses Predictions

Prediction of Satellite NPP Overpassing Cal/Val Site: Antarctic Dome C

Ground Cal/Val Site Location: Latitude: -75.10, Longitude: 123.35; Satellite-Ground Site NADIR distance within 100 km.

Table of predicted overpasses for the next 14.0 days since TLE Epoch: 3/27/2015
Interval Starting Time Ending Time Minimum Distance Time Minimum Distance (km)
1 03/29/2015 15:00:33 03/29/2015 15:01:02 03/29/2015 15:00:47 17.00
2 03/30/2015 14:41:51 03/30/2015 14:42:03 03/30/2015 14:41:57 90.13
3 03/31/2015 07:43:21 03/31/2015 07:43:48 03/31/2015 07:43:34 39.42
4 04/01/2015 07:24:34 04/01/2015 07:24:54 04/01/2015 07:24:44 70.75
5 04/03/2015 15:06:45 04/03/2015 15:07:10 04/03/2015 15:06:57 53.80
6 04/04/2015 14:47:54 04/04/2015 14:48:18 04/04/2015 14:48:06 55.39
7 04/05/2015 07:49:34 04/05/2015 07:49:53 04/05/2015 07:49:44 74.40
8 04/06/2015 07:30:40 04/06/2015 07:31:07 04/06/2015 07:30:54 33.73
9 04/08/2015 15:13:00 04/08/2015 15:13:12 04/08/2015 15:13:06 91.24
